This is the latest recevied weather packets stored in our database for station/object VE3MJM-WX. If no packets are shown the sender has not sent any weather packets the latest 10 day(s).
| Time | Temp. | Humidity | Pressure | Rain* | Wind** | Luminosity | Snow |
|---|---|---|---|---|---|---|---|
| 1778128543 | 3.33° C | 86% | 973.5 hPa | 0 mm | - | - | - |
| 1778128509 | 3.33° C | 86% | 973.5 hPa | 0 mm | - | - | - |
| 1778127607 | 3.33° C | 90% | 973.6 hPa | 0 mm | - | - | - |
| 1778126704 | 3.33° C | 88% | 973.6 hPa | 0 mm | - | - | - |
| 1778125802 | 3.33° C | 88% | 973.7 hPa | 0 mm | - | - | - |
| 1778124929 | 3.33° C | 87% | 973.5 hPa | 0 mm | - | - | - |
| 1778124899 | 2.78° C | 81% | 973.7 hPa | 0 mm | - | - | - |
| 1778124027 | 2.78° C | 83% | 973.6 hPa | 0 mm | - | - | - |
| 1778123997 | 2.78° C | 83% | 973.8 hPa | 0 mm | - | - | - |
| 1778123124 | 2.78° C | 84% | 973.8 hPa | 0 mm | - | - | - |
| 1778123094 | 2.78° C | 83% | 973.7 hPa | 0 mm | - | - | - |
| 1778122222 | 2.78° C | 83% | 973.5 hPa | 0 mm | - | - | - |
| 1778122192 | 2.78° C | 84% | 973.4 hPa | 0 mm | - | - | - |
| 1778121319 | 2.78° C | 76% | 973.5 hPa | 0 mm | - | - | - |
| 1778121289 | 2.78° C | 76% | 973.4 hPa | 0 mm | - | - | - |
| 1778120417 | 2.78° C | 76% | 973.5 hPa | 0 mm | - | - | - |
| 1778120386 | 2.78° C | 77% | 973.5 hPa | 0 mm | - | - | - |
| 1778119514 | 3.33° C | 77% | 973.5 hPa | 0 mm | - | - | - |
| 1778119484 | 3.33° C | 74% | 973.4 hPa | 0 mm | - | - | - |
| 1778118642 | 3.33° C | 76% | 973.4 hPa | 0 mm | - | - | - |
| 1778117739 | 3.89° C | 69% | 973.4 hPa | 0 mm | - | - | - |
| 1778116836 | 4.44° C | 70% | 973.5 hPa | 0 mm | - | - | - |
| 1778115934 | 5° C | 60% | 973.6 hPa | 0 mm | - | - | - |
| 1778115077 | 6.11° C | 56% | 973.4 hPa | 0 mm | - | - | - |
| 1778115031 | 6.11° C | 56% | 973.4 hPa | 0 mm | - | - | - |
* Rain latest hour (hover to see other rain measurements)
** Current wind speed in m/s (hover to see current wind gust speed)